This demonstration page uses our WeatherBlox Daily Observations layout. Learn more.

Left ArrowRight Arrow

Hourly Observations for October 21, 2016

Temp ( °F °C ) Dew Point ( °F °C ) Humidity (%) Winds ( mph kmh ) Pressure ( in mb ) Visibility ( mi km ) Precip ( " mm )
12:53 am 00:53 Cloudy with Haze 51 10.6 40 4.4 66 66 NW 6 9 29.88 1012 4 6 0.00 0.00
1:53 am 01:53 Mostly Cloudy 48 8.9 40 4.4 74 74 SW 10 17 29.89 1012 10 16 0.00 0.00
2:53 am 02:53 Partly Cloudy 50 10 39 3.9 66 66 SW 13 20 29.91 1013 10 16 0.00 0.00
3:53 am 03:53 Clear 46 7.8 39 3.9 77 77 SW 10 17 29.92 1013 10 16 0.00 0.00
4:53 am 04:53 Clear 44 6.7 37 2.8 76 76 SW 16 26 29.93 1014 10 16 0.00 0.00
5:53 am 05:53 Clear 43 6.1 36 2.2 76 76 SW 16 26 29.97 1015 10 16 0.00 0.00
6:53 am 06:53 Clear 43 6.1 35 1.7 74 74 SW 16 26 29.98 1015 10 16 0.00 0.00
7:53 am 07:53 Sunny 39 3.9 34 1.1 82 82 SSW 12 19 30.00 1016 10 16 0.00 0.00
8:53 am 08:53 Sunny 43 6.1 35 1.7 74 74 SW 6 9 30.02 1017 10 16 0.00 0.00
9:53 am 09:53 Sunny 49 9.4 36 2.2 61 61 WSW 10 17 30.02 1017 10 16 0.00 0.00
10:53 am 10:53 Hazy 56 13.3 34 1.1 44 44 WNW 10 17 30.00 1016 4 6 0.00 0.00
11:04 am 11:04 Hazy 57 13.9 33 0.6 41 41 WNW 13 20 29.97 1015 2 3 0.00 0.00
11:18 am 11:18 Sunny 57 14 34 1 41 41 WNW 15 24 29.97 1015 9 14 0.00 0.00
11:53 am 11:53 Sunny 59 15 32 0 36 36 WNW 12 19 29.99 1016 10 16 0.00 0.00
12:53 pm 12:53 Sunny 61 16.1 31 -0.6 32 32 WNW 13 20 29.98 1015 10 16 0.00 0.00
1:53 pm 13:53 Sunny 62 16.7 30 -1.1 30 30 W 16 26 29.96 1015 10 16 0.00 0.00
2:53 pm 14:53 Sunny 59 15 31 -0.6 35 35 SW 9 15 29.95 1014 10 16 0.00 0.00
3:53 pm 15:53 Sunny 57 13.9 34 1.1 42 42 SSW 9 15 29.95 1014 10 16 0.00 0.00
4:53 pm 16:53 Sunny 55 12.8 36 2.2 49 49 SSW 6 9 29.95 1014 10 16 0.00 0.00
5:53 pm 17:53 Sunny 50 10 36 2.2 59 59 SSW 7 11 29.95 1014 10 16 0.00 0.00
6:53 pm 18:53 Mostly Cloudy 48 8.9 37 2.8 66 66 SSE 8 13 29.93 1014 10 16 0.00 0.00
7:53 pm 19:53 Cloudy 47 8.3 37 2.8 69 69 Calm 29.93 1014 10 16 0.00 0.00
8:53 pm 20:53 Cloudy 48 8.9 37 2.8 66 66 Calm 29.90 1013 10 16 0.00 0.00
9:53 pm 21:53 Cloudy 48 8.9 37 2.8 66 66 ENE 3 6 29.88 1012 10 16 0.00 0.00
10:53 pm 22:53 Mostly Cloudy 47 8.3 39 3.9 74 74 ESE 5 7 29.85 1011 10 16 0.00 0.00
11:53 pm 23:53 Cloudy 45 7.2 38 3.3 77 77 E 3 6 29.85 1011 10 16 0.00 0.00

Powered by AerisWeather